Location: Newark
(55.7167°N, 12.5667°E)
Time: 05:56:24
(UTC+00:00)

N. Korean satellite - Pass Details

Date: 12 December 2019
Orbit: 454 x 507 km, 97.2° (Epoch: 25 January)

Event Time Altitude Azimuth Distance (km) Brightness Sun altitude
Rises 04:06:41 0° 26° (NNE) 2,559 10.5 -26.7°
Reaches altitude 10° 04:09:20 10° 47° (NE) 1,661 9.8 -26.4°
Maximum altitude 04:11:45 17° 89° (E) 1,274 9.5 -26.0°
Drops below altitude 10° 04:14:06 10° 132° (SE) 1,631 9.9 -25.7°
Sets 04:16:41 0° 153° (SSE) 2,491 10.6 -25.3°
